Theta_e
314 315 315 316 315 308 310 312 327 336 340 339 337 336 335 335 334 334 334 336 334 334 333 332 329 328 328 329 327 328 328 328
313 313 313 314 315 314 308 310 322 338 339 338 337 336 336 336 336 335 335 335 334 335 334 332 328 328 328 328 327 327 327 327
313 312 312 313 312 313 315 308 317 335 338 338 338 337 337 337 336 336 337 336 335 336 334 332 329 328 328 327 326 328 327 327
311 310 311 311 310 310 312 316 321 331 338 338 337 336 335 334 333 336 335 337 337 336 334 332 330 328 327 328 328 328 328 327
309 309 309 309 309 309 310 314 318 334 337 337 335 336 334 334 333 332 332 333 336 336 334 334 333 329 328 329 328 327 327 326
307 307 306 306 307 307 310 314 321 333 337 336 335 335 334 333 332 321 321 331 334 334 334 333 332 329 327 329 328 327 326 325
306 305 304 304 305 305 307 313 325 335 336 335 333 333 332 332 332 329 329 331 332 333 333 332 330 330 328 329 328 327 326 325
304 303 302 302 303 303 305 309 319 335 334 333 332 332 330 330 331 331 329 329 330 331 330 330 330 331 329 328 327 326 326 326
302 301 300 300 301 302 303 306 312 334 333 333 331 331 328 329 328 327 327 328 329 328 329 328 330 327 326 327 326 326 325 326
300 299 298 298 299 301 302 304 310 331 332 330 329 330 329 327 327 327 327 327 327 327 325 325 327 326 326 327 327 326 325 325
298 297 297 297 297 298 301 302 308 330 330 329 328 327 328 327 327 325 326 325 325 324 324 324 326 327 327 326 326 325 325 325
296 295 295 295 296 297 298 301 305 313 328 327 328 327 327 326 326 324 325 325 325 327 327 326 326 326 325 325 324 324 324 325
295 294 294 294 294 295 296 299 302 306 319 327 326 326 327 327 325 325 325 325 325 326 326 326 323 322 323 322 322 322 322 323
294 293 293 293 293 293 295 296 299 302 309 321 325 326 326 325 325 326 325 325 325 324 324 321 320 321 322 322 323 323 323 323
294 293 293 292 292 292 293 294 296 298 299 304 308 313 325 325 324 324 325 324 323 322 321 319 319 321 321 321 322 322 322 322
293 293 292 291 291 291 291 292 294 296 296 296 296 300 309 313 321 323 323 322 320 318 317 316 317 319 320 320 320 320 321 321
292 292 291 290 290 290 290 291 291 292 294 294 295 297 298 298 299 313 315 313 312 312 311 311 312 312 314 318 319 319 318 318
291 291 290 289 289 289 289 289 290 290 291 291 292 294 293 294 293 295 299 300 303 303 302 302 301 302 307 312 315 314 310 307
290 290 289 288 288 288 287 287 288 288 289 289 290 291 292 295 292 289 290 292 292 292 292 293 294 293 298 305 306 303 300 298
Wind_Speed
19 22 27 29 29 28 32 34 38 41 39 34 34 37 38 37 36 37 33 31 30 26 24 24 25 26 26 26 23 25 24 22
15 21 23 29 27 23 28 33 36 35 32 29 28 31 34 34 38 39 35 32 31 29 26 24 26 27 27 28 22 24 19 22
14 22 19 20 27 25 21 30 35 37 34 35 27 33 31 32 28 30 38 36 32 32 29 27 27 26 27 27 25 17 17 26
15 16 23 22 24 24 24 23 29 37 36 33 26 23 17 20 24 32 32 38 35 33 30 29 28 27 28 29 29 25 17 25
12 14 20 24 25 26 27 25 25 34 34 33 34 32 23 26 30 25 18 30 34 31 31 29 28 29 27 29 29 29 22 18
15 15 22 28 25 27 26 28 24 29 34 37 36 30 26 26 31 28 33 34 27 32 33 31 29 28 27 29 29 30 31 21
14 20 24 26 26 27 28 27 25 29 33 34 35 31 28 28 28 27 31 34 34 35 33 32 28 28 28 28 27 28 28 27
13 17 18 26 29 31 30 28 26 24 28 28 29 29 30 31 36 35 32 30 33 35 33 30 26 26 25 26 27 27 28 28
13 16 18 25 30 31 32 31 32 20 24 24 22 26 25 25 24 26 29 31 28 29 30 28 24 23 23 23 26 26 27 29
15 17 23 27 30 31 30 31 31 16 21 22 24 27 27 25 22 21 21 25 25 24 26 24 24 26 24 26 22 23 26 28
16 16 21 26 30 32 31 30 28 7 15 20 21 22 23 23 17 24 26 23 21 21 24 24 27 24 24 21 21 24 25 28
14 15 22 24 26 30 31 33 31 23 12 17 20 22 22 18 19 23 24 22 21 23 24 26 23 21 20 19 21 22 24 25
14 15 21 25 27 31 31 32 30 29 14 12 18 18 15 16 28 27 24 21 21 23 22 20 18 18 17 17 20 20 24 25
15 15 16 23 28 31 31 31 31 29 23 11 4 4 10 19 28 25 22 21 19 17 16 14 14 12 10 13 15 15 19 24
14 15 16 23 26 27 29 31 31 29 25 23 19 11 13 21 25 25 23 20 18 16 14 13 12 11 8 9 11 12 15 17
14 14 15 21 26 27 28 28 29 25 27 30 25 19 14 9 25 28 24 23 21 18 16 12 8 5 4 7 7 10 12 10
14 14 15 19 24 26 27 29 29 27 27 25 25 24 20 19 17 27 26 21 19 17 13 11 8 5 1 5 6 8 11 13
13 14 14 20 23 24 24 25 28 28 28 26 21 29 27 28 24 20 25 22 20 19 16 13 12 9 4 3 9 11 13 13
11 13 17 21 23 24 23 27 28 28 29 31 31 30 29 28 23 28 25 24 24 21 18 16 16 15 10 9 13 14 15 13
Wind_Direction
329 327 329 325 319 289 275 257 234 226 218 207 212 214 218 218 219 214 209 210 210 208 209 210 207 207 202 201 203 197 193 187
315 325 331 329 327 330 286 256 238 214 211 200 199 200 205 209 210 212 208 210 210 208 211 208 207 205 205 203 191 187 189 189
325 327 330 332 324 324 317 269 240 216 204 206 201 204 207 208 201 210 207 209 210 209 212 212 207 203 203 201 196 181 190 190
322 327 322 330 326 324 313 294 251 221 205 199 199 187 193 186 193 205 207 209 206 208 212 210 203 209 203 201 198 196 190 189
321 327 325 325 324 323 316 307 279 224 200 197 194 193 187 198 192 189 197 243 207 208 212 210 206 205 209 211 213 211 199 196
323 328 328 319 326 321 319 316 285 223 199 197 195 196 195 184 181 164 197 212 208 213 213 210 209 208 209 211 212 212 211 207
326 330 333 323 330 333 330 326 301 213 201 199 197 195 183 168 176 172 186 196 204 214 212 215 213 207 204 217 220 221 215 213
348 341 338 333 338 341 336 332 321 209 209 208 202 197 189 177 174 179 181 181 193 204 211 211 205 211 212 218 219 218 214 211
10 343 340 337 342 340 338 333 328 206 204 208 203 202 186 192 190 179 180 183 187 194 206 206 207 218 228 222 222 221 227 227
358 348 344 347 345 339 336 330 327 224 197 193 194 200 196 192 193 198 188 178 182 192 202 205 212 221 216 216 223 228 231 230
356 353 346 348 345 343 340 342 341 240 184 185 182 185 193 196 192 199 183 174 182 188 205 208 209 216 217 219 225 233 235 229
355 348 349 352 349 351 347 354 352 0 179 180 181 189 186 180 197 193 191 183 186 189 197 203 206 206 211 218 230 236 240 235
357 355 351 355 357 356 352 353 353 356 18 194 181 178 188 183 205 200 194 180 186 197 198 194 205 214 216 228 238 244 247 248
353 359 359 360 355 355 355 356 358 359 19 34 163 146 188 182 198 191 185 180 182 187 185 193 201 199 206 228 236 247 260 259
352 359 1 1 357 354 356 359 2 7 14 37 36 37 186 197 187 179 172 169 167 170 175 175 183 187 195 235 250 263 266 256
3 359 358 1 359 357 1 4 5 8 26 29 26 32 65 95 149 156 156 157 156 155 154 149 145 162 207 231 238 253 245 217
4 4 1 3 1 358 1 5 7 16 28 28 34 48 52 56 53 129 134 137 137 134 124 120 118 104 172 218 205 211 198 189
9 5 3 2 0 2 5 8 14 20 24 28 34 55 56 46 45 81 111 112 117 108 103 101 90 72 93 157 181 161 151 147
14 9 8 7 7 9 15 22 24 24 26 28 33 47 53 57 42 48 68 87 86 88 87 86 82 67 83 122 136 124 116 112